Tracking 19192 objects as of 19-Jun-2018
HD Live streaming from Space Station
objects crossing your sky now

FENGYUN 1C DEB

Track FENGYUN 1C DEB now!
10-day predictions


NORAD ID: 33693
Int'l Code: 1999-025DGE
Perigee: 848.3 km
Apogee: 1,202.9 km
Inclination: 99.4 °
Period: 105.5 minutes
Semi major axis: 7396 km
RCS: 0.0077 m2 (small)
Launch date: May 10, 1999
Source: People's Republic of China (PRC)
Launch site: Taiyaun Space Center, China (TSC)

Note: This is SATELLITE DEBRIS
aabbcc
Your satellite tracking list
Your tracking list is empty




NASA's NSSDC Master Catalog

Two Line Element Set (TLE):
1 33693U 99025DGE 18170.19073250  .00000391  00000-0  44448-3 0  9993
2 33693  99.3726  59.9453 0239723 244.6628 270.0681 13.64762846509516
Source of the keplerian elements: AFSPC